カタログに戻る

STARLINK-37434

運用中通信VLEO
NORAD 69252·PAYLOAD·🇺🇸 United States

打ち上げ May 29, 2026 から Cape Canaveral Space Force Station

Loading…

次のパス (今後24時間)

TLE

最新Source: CelesTrak SupGP

元期: Sep 14, 2026, 21:10 UTC

1 69252C 26117Q   26257.88243056 -.00016187  00000+0 -47806-3 0  2578
2 69252  53.1582 179.7885 0001353 104.6597  43.5318 15.34411289    12

AllMySatでSTARLINK-37434をリアルタイム追跡

Download on the App Store